DL3NBY Weather Reports


time (UTC)temp
C
wind
direction
speed
KPH
gust
KPH
rain 1hr
cm
rain 24hr
cm
rain mn
cm
humidity
%
barometer
mb
20260503060110 10 0.0 3.2 0.00 0.00 0.00 91 1014.5
20260503055109 9 0.0 0.0 0.00 0.00 0.00 91 1014.5
20260503054104 9 0.0 1.6 0.00 0.00 0.00 90 1014.6
20260503052117 7 0.0 0.0 0.00 0.00 0.00 97 1014.6
20260503051054 7 0.0 0.0 0.00 0.00 0.00 99 1014.4
20260503045108 6 0.0 0.0 0.00 0.00 0.00 99 1014.3
20260503043041 8 0.0 0.0 0.00 0.00 0.00 99 1014.4
20260503042038 -17 0.0 0.0 0.00 0.00 0.00 1 1014.4
20260503041038 -17 0.0 0.0 0.00 0.00 0.00 1 1014.2
20260503040032 -17 0.0 0.0 0.00 0.00 0.00 1 1014.2
20260503034025 -17 0.0 0.0 0.00 0.00 0.00 1 1014.3
20260503033022 -17 0.0 0.0 0.00 0.00 0.00 1 1014.3
20260503032019 -17 0.0 0.0 0.00 0.00 0.00 1 1014.4
20260503031016 -17 0.0 0.0 0.00 0.00 0.00 1 1014.4
20260503024107 -17 0.0 0.0 0.00 0.00 0.00 1 1014.5
20260503023104 -17 0.0 0.0 0.00 0.00 0.00 1 1014.6
20260503021117 -17 0.0 0.0 0.00 0.00 0.00 1 1014.7
20260503020055 -17 0.0 0.0 0.00 0.00 0.00 1 1014.7
20260503015051 -17 0.0 0.0 0.00 0.00 0.00 1 1014.7
20260503014048 -17 0.0 0.0 0.00 0.00 0.00 1 1014.8
20260503012042 -17 0.0 0.0 0.00 0.00 0.00 1 1014.8
20260503011038 -17 0.0 0.0 0.00 0.00 0.00 1 1014.8
20260503010055 -17 0.0 0.0 0.00 0.00 0.00 1 1014.8
20260503005032 -17 0.0 0.0 0.00 0.00 0.00 1 1014.9
20260503003026 -17 0.0 0.0 0.00 0.00 0.00 1 1015.0
20260503001020 -17 0.0 0.0 0.00 0.00 0.00 1 1015.2
20260503000016 -17 0.0 0.0 0.00 0.00 0.00 1 1015.1
20260502235114 -17 0.0 0.0 0.00 0.00 0.00 1 1015.2
20260502234111 -17 0.0 0.0 0.00 0.00 0.00 1 1015.2
20260502233107 -17 0.0 0.0 0.00 0.00 0.00 1 1015.3
20260502232105 -17 0.0 0.0 0.00 0.00 0.00 1 1015.2
20260502230119 8 0.0 0.0 0.00 0.00 0.00 49 1015.3
20260502225055 12 0.0 0.0 0.00 0.00 0.00 65 1015.4
20260502224052 -17 0.0 0.0 0.00 0.00 0.00 1 1015.3
20260502223049 -17 0.0 0.0 0.00 0.00 0.00 1 1015.4
20260502222046 -17 0.0 0.0 0.00 0.00 0.00 1 1015.4
20260502221042 -17 0.0 0.0 0.00 0.00 0.00 1 1015.4
20260502220040 -17 0.0 0.0 0.00 0.00 0.00 1 1015.5
20260502215036 -17 0.0 0.0 0.00 0.00 0.00 1 1015.5
20260502213030 -17 0.0 0.0 0.00 0.00 0.00 1 1015.6
20260502212026 -17 0.0 0.0 0.00 0.00 0.00 1 1015.6
20260502211023 -17 0.0 0.0 0.00 0.00 0.00 1 1015.7
20260502210020 -17 0.0 0.0 0.00 0.00 0.00 1 1015.7
20260502205016 -17 0.0 0.0 0.00 0.00 0.00 1 1015.7
20260502203110 -17 0.0 0.0 0.00 0.00 0.00 1 1015.8
20260502201104 -17 0.0 0.0 0.00 0.00 0.00 1 1015.8
20260502200101 -17 0.0 0.0 0.00 0.00 0.00 1 1015.8
20260502195058 -17 0.0 0.0 0.00 0.00 0.00 1 1015.8
20260502194114 -17 0.0 0.0 0.00 0.00 0.00 1 1015.8
20260502193051 -17 0.0 0.0 0.00 0.00 0.00 1 1015.7
20260502192048 -17 0.0 0.0 0.00 0.00 0.00 1 1015.6
20260502185038 -17 0.0 0.0 0.00 0.00 0.00 1 1015.5
20260502184038 12 0.0 0.0 0.00 0.00 0.00 50 1015.5
20260502182059 15 0.0 0.0 0.00 0.00 0.00 71 1015.5
20260502181055 16 0.0 0.0 0.00 0.00 0.00 69 1015.4
20260502162040 24 216 3.2 11.3 0.00 0.00 0.00 37 1016.1
20260502161021 25 198 1.6 4.8 0.00 0.00 0.00 35 1016.2
20260502160114 25 180 0.0 3.2 0.00 0.00 0.00 34 1016.3
20260502151059 25 167 1.6 6.4 0.00 0.00 0.00 31 1016.7
20260502123109 25 90 0.0 4.8 0.00 0.00 0.00 34 1018.8
20260502122105 25 179 1.6 6.4 0.00 0.00 0.00 35 1019.0
20260502121102 25 195 3.2 6.4 0.00 0.00 0.00 34 1019.1
20260502115056 25 122 3.2 11.3 0.00 0.00 0.00 35 1019.4
20260502114053 25 79 1.6 6.4 0.00 0.00 0.00 37 1019.6
20260502113110 24 81 1.6 4.8 0.00 0.00 0.00 38 1019.7
20260502112046 24 70 3.2 6.4 0.00 0.00 0.00 37 1019.9
20260502111103 24 180 0.0 4.8 0.00 0.00 0.00 39 1019.9
20260502105037 23 33 1.6 6.4 0.00 0.00 0.00 40 1020.2
20260502104034 22 95 1.6 6.4 0.00 0.00 0.00 42 1020.3
20260502103030 22 136 3.2 11.3 0.00 0.00 0.00 41 1020.5
20260502102027 22 108 3.2 8.0 0.00 0.00 0.00 41 1020.6
20260502101024 22 45 1.6 6.4 0.00 0.00 0.00 43 1020.8
20260502091055 20 137 3.2 11.3 0.00 0.00 0.00 51 1021.5
20260502071017 13 90 0.0 3.2 0.00 0.00 0.00 73 1022.7
20260502065111 11 0.0 3.2 0.00 0.00 0.00 78 1022.8